This is the latest recevied weather packets stored in our database for station/object N2WH. If no packets are shown the sender has not sent any weather packets the latest 10 day(s).
| Time | Temp. | Humidity | Pressure | Rain* | Wind** | Luminosity | Snow |
|---|---|---|---|---|---|---|---|
| 1777390858 | 16.67° C | 46% | 1022.5 hPa | 0 mm | - | 427 W/m² | - |
| 1777390555 | 16.67° C | 46% | 1022.6 hPa | 0 mm | - | 350 W/m² | - |
| 1777390252 | 16.67° C | 45% | 1022.7 hPa | 0 mm | - | 379 W/m² | - |
| 1777389947 | 16.67° C | 46% | 1022.6 hPa | 0 mm | - | 368 W/m² | - |
| 1777389644 | 16.11° C | 46% | 1022.7 hPa | 0 mm | - | 425 W/m² | - |
| 1777389341 | 16.11° C | 45% | 1022.8 hPa | 0 mm | - | 343 W/m² | - |
| 1777389039 | 16.11° C | 46% | 1022.5 hPa | 0 mm | - | 310 W/m² | - |
| 1777388736 | 16.11° C | 47% | 1022.7 hPa | 0 mm | - | 278 W/m² | - |
| 1777388433 | 16.11° C | 45% | 1022.7 hPa | 0 mm | - | 294 W/m² | - |
| 1777388132 | 16.11° C | 44% | 1022.7 hPa | 0 mm | - | 281 W/m² | - |
| 1777387828 | 16.11° C | 45% | 1022.7 hPa | 0 mm | - | 267 W/m² | - |
| 1777387525 | 16.67° C | 45% | 1022.7 hPa | 0 mm | - | 309 W/m² | - |
| 1777387221 | 16.11° C | 44% | 1022.6 hPa | 0 mm | - | 324 W/m² | - |
| 1777386916 | 16.67° C | 43% | 1022.7 hPa | 0 mm | - | 372 W/m² | - |
| 1777386614 | 16.67° C | 43% | 1022.7 hPa | 0 mm | - | 429 W/m² | - |
| 1777386310 | 16.67° C | 44% | 1022.8 hPa | 0 mm | - | 534 W/m² | - |
| 1777386008 | 16.67° C | 43% | 1022.6 hPa | 0 mm | - | 606 W/m² | - |
| 1777385704 | 16.67° C | 41% | 1022.7 hPa | 0 mm | - | 536 W/m² | - |
| 1777385401 | 16.11° C | 44% | 1022.6 hPa | 0 mm | - | 517 W/m² | - |
| 1777385098 | 16.11° C | 43% | 1022.5 hPa | 0 mm | - | 371 W/m² | - |
| 1777384794 | 16.11° C | 45% | 1022.5 hPa | 0 mm | - | 577 W/m² | - |
| 1777384490 | 16.11° C | 43% | 1022.7 hPa | 0 mm | - | 481 W/m² | - |
| 1777384185 | 15.56° C | 45% | 1022.6 hPa | 0 mm | - | 435 W/m² | - |
| 1777383882 | 15.56° C | 46% | 1022.5 hPa | 0 mm | - | 457 W/m² | - |
| 1777383578 | 15° C | 47% | 1022.5 hPa | 0 mm | - | 378 W/m² | - |
* Rain latest hour (hover to see other rain measurements)
** Current wind speed in m/s (hover to see current wind gust speed)